{"data":{"norad_id":69854,"intl_designator":"2026-155G","name":"QIANFAN-225","alt_names":[],"object_type":"PAYLOAD","status":"ACTIVE","operator":null,"country":"PRC","launch_date":"2026-07-05","launch_site_code":"WSC","launch_vehicle":null,"mission":null,"orbit_class":"UNKNOWN","rcs_meters":null,"size_class":null,"mass_kg":null,"dimensions":null,"purposes":[],"wikipedia_slug":null,"has_3d_model":false,"image_url":null,"decayed_at":null,"tle_current":{"epoch":"2026-09-19T20:07:51.383424Z","epoch_age_seconds":78802,"freshness":"FRESH","line1":"1 69854U 26155G   26262.83878916 -.01704552  00000+0 -28789+1 0  9998","line2":"2 69854  89.0079  53.8111 0033777  21.5342 338.7220 13.49325804 10623","mean_motion":13.49325804,"eccentricity":0.0033777,"inclination_deg":89.0079,"raan_deg":53.8111,"arg_perigee_deg":21.5342,"mean_anomaly_deg":338.722,"bstar":-2.8789,"rev_number":1062,"period_min":106.71996309055,"perigee_km":1049.5664802968,"apogee_km":1099.9136460092,"semimajor_km":7452.877063153,"source":"CELESTRAK","updated_at":"2026-09-20T09:00:25.135261Z"}}}